This is the latest recevied weather packets stored in our database for station/object IQ5LI-10. If no packets are shown the sender has not sent any weather packets the latest 10 day(s).
| Time | Temp. | Humidity | Pressure | Rain* | Wind** | Luminosity | Snow |
|---|---|---|---|---|---|---|---|
| 1777674029 | 26.11° C | 34% | 1026.9 hPa | - | - | - | - |
| 1777668615 | 26.67° C | 34% | 1026.6 hPa | - | - | - | - |
| 1777666811 | 26.67° C | 34% | 1026.3 hPa | - | - | - | - |
| 1777665006 | 26.67° C | 34% | 1026.1 hPa | - | - | - | - |
| 1777663202 | 26.67° C | 34% | 1025.6 hPa | - | - | - | - |
| 1777659591 | 26.67° C | 34% | 1025.1 hPa | - | - | - | - |
| 1777657787 | 27.22° C | 34% | 1024.7 hPa | - | - | - | - |
| 1777655982 | 27.22° C | 34% | 1024.6 hPa | - | - | - | - |
| 1777650568 | 26.67° C | 34% | 1024.5 hPa | - | - | - | - |
| 1777646959 | 26.67° C | 34% | 1024.5 hPa | - | - | - | - |
| 1777645154 | 26.67° C | 34% | 1024.7 hPa | - | - | - | - |
| 1777643351 | 26.67° C | 34% | 1024.9 hPa | - | - | - | - |
| 1777639740 | 26.67° C | 34% | 1025.4 hPa | - | - | - | - |
| 1777637936 | 26.11° C | 34% | 1025.6 hPa | - | - | - | - |
| 1777636131 | 26.11° C | 34% | 1025.8 hPa | - | - | - | - |
| 1777634327 | 26.11° C | 34% | 1025.9 hPa | - | - | - | - |
| 1777632522 | 25.56° C | 34% | 1026 hPa | - | - | - | - |
| 1777627108 | 25.56° C | 34% | 1026.7 hPa | - | - | - | - |
| 1777623499 | 25° C | 35% | 1026.6 hPa | - | - | - | - |
| 1777619890 | 25° C | 35% | 1026.2 hPa | - | - | - | - |
| 1777572966 | 27.22° C | 36% | 1021.5 hPa | - | - | - | - |
| 1777563943 | 27.22° C | 36% | 1020.8 hPa | - | - | - | - |
| 1777551311 | 26.67° C | 36% | 1021.1 hPa | - | - | - | - |
| 1777542287 | 26.11° C | 36% | 1021.5 hPa | - | - | - | - |
| 1777462880 | 26.11° C | 37% | 1016.9 hPa | - | - | - | - |
* Rain since midnight (hover to see other rain measurements)
** Current wind speed in m/s (hover to see current wind gust speed)